[Iaude] MPEC K114: 2024 KQ [a=2.43,e=0.58,i=2.7,H=25.8]

mpec at cfa.harvard.edu mpec at cfa.harvard.edu
Tue May 28 20:32:10 EDT 2024


M.P.E.C. 2024-K114                                 Issued 2024 May 29, 00:18 UT

     The Minor Planet Electronic Circulars contain information on unusual
         minor planets, routine data on comets and natural satellites,
         and occasional editorial announcements.  They are published
    on behalf of Division F of the International Astronomical Union by the
          Minor Planet Center, Smithsonian Astrophysical Observatory,
                          Cambridge, MA 02138, U.S.A.
			  
             Prepared using the Tamkin Foundation Computer Network

                              MPC at CFA.HARVARD.EDU
            URL https://www.minorplanetcenter.net/    ISSN 1523-6714

                                    2024 KQ                                     


Observations:
     K24K00Q  C2024 05 08.27443712 52 32.192-05 15 58.73         22.11GVEK114F51
     K24K00Q  C2024 05 08.28485312 52 32.813-05 15 43.80         21.54GVEK114F51
     K24K00Q  C2024 05 08.30574212 52 34.068-05 15 14.28         22.56GVEK114F51
     K24K00Q* C2024 05 27.30219715 57 41.819+22 07 52.37         20.10wXEK114F52
     K24K00Q  C2024 05 27.31456715 58 08.210+22 10 44.57         19.63wXEK114F52
     K24K00Q  C2024 05 27.32696615 58 34.623+22 13 36.41         19.25wXEK114F52
     K24K00Q  C2024 05 27.38926916 00 31.229+22 26 17.84         19.3 GVEK114H01
     K24K00Q KC2024 05 27.39192016 00 37.771+22 27 04.64         19.75GVEK114I52
     K24K00Q KC2024 05 27.39243516 00 38.898+22 27 11.45         19.59GVEK114I52
     K24K00Q KC2024 05 27.39294516 00 39.978+22 27 18.07         19.49GVEK114I52
     K24K00Q KC2024 05 27.39345316 00 41.116+22 27 24.88         19.12GVEK114I52
     K24K00Q  C2024 05 27.39371416 00 40.895+22 27 15.89         19.3 GVEK114H01
     K24K00Q  C2024 05 27.40404016 01 03.455+22 29 30.56         19.2 GVEK114H01
     K24K00Q  C2024 05 27.41012716 01 16.776+22 30 49.68         19.5 GVEK114H01
     K24K00Q  C2024 05 27.46572116 03 32.152+22 44 58.65               VEK114F51
     K24K00Q KB2024 05 27.63398 16 10 15.87 +23 20 43.7          19.6 GVEK114P13
     K24K00Q KB2024 05 27.64111 16 10 32.00 +23 22 19.3          19.4 GVEK114P13
     K24K00Q KB2024 05 27.64826 16 10 48.20 +23 23 55.5          19.6 GVEK114P13
     K24K00Q KB2024 05 27.65539 16 11 04.42 +23 25 30.9          19.6 GVEK114P13
     K24K00Q KB2024 05 27.66275 16 11 21.07 +23 27 09.7          19.7 GVEK114P13
     K24K00Q KC2024 05 27.87763516 20 14.75 +24 13 38.9          19.7 GXEK114958
     K24K00Q KC2024 05 27.88580016 20 34.32 +24 15 29.0          19.4 GXEK114958
     K24K00Q KC2024 05 27.89394016 20 53.89 +24 17 17.9          18.9 GXEK114958
     K24K00Q KB2024 05 27.94117 16 22 42.02 +24 27 31.3          19.5 GXEK114G00
     K24K00Q KB2024 05 27.94375 16 22 48.22 +24 28 04.7          19.1 GXEK114G00
     K24K00Q KC2024 05 27.95362 16 23 10.77 +24 30 08.5          19.1 GXEK114G02
     K24K00Q KC2024 05 27.96137 16 23 29.52 +24 31 49.4          19.3 GXEK114G02
     K24K00Q KC2024 05 27.96912 16 23 48.13 +24 33 29.1          19.1 GXEK114G02
     K24K00Q KB2024 05 28.32237 16 38 55.922+25 49 10.60         19.7 GVEK114734
     K24K00Q KB2024 05 28.32605 16 39 05.282+25 49 55.88         19.3 GVEK114734
     K24K00Q KB2024 05 28.32975 16 39 14.599+25 50 40.63         19.7 GVEK114734
     K24K00Q KB2024 05 28.88610 17 04 59.35 +27 37 58.0          19.8 GXEK114G15
     K24K00Q KB2024 05 28.89120 17 05 13.27 +27 38 55.6          19.3 GXEK114G15
     K24K00Q KB2024 05 28.99258117 09 53.95 +27 57 25.1          20.1 GXEK114I93
     K24K00Q KB2024 05 28.99502517 10 00.66 +27 57 51.5          19.8 GXEK114I93
     K24K00Q KB2024 05 28.99732617 10 07.00 +27 58 16.2          20.3 GXEK114I93

Observer details:
734 Farpoint Observatory, Eskridge.  Observers D. Cromer, G. Hug, D. Goodin,
    R. Valentine, P. Lessig.  Measurer G. Hug.  0.69-m f/3.54 reflector + CMO.
958 Observatoire de Dax.  Observers P. Dupouy, J. B. de Vanssay.  Measurer F.
    Losse.  0.43-m f/2.7 Reflector + CCD.
F51 Pan-STARRS 1, Haleakala.  Observers J. Herman, T. Lowe, P. Minguez, A.
    Schultz, I. Smith.  Measurers K. Chambers, T. de Boer, J. Fairlamb, H.
    Gao, M. Huber, C.-C. Lin, E. Magnier, Y. Ramanjooloo, R. Wainscoat, R.
    Weryk.  1.8-m Ritchey-Chretien + CCD.
F52 Pan-STARRS 2, Haleakala.  Observers J. Herman, T. Lowe, P. Minguez, A.
    Schultz, I. Smith.  Measurers K. Chambers, T. de Boer, J. Fairlamb, H.
    Gao, M. Huber, C.-C. Lin, E. Magnier, Y. Ramanjooloo, R. Wainscoat, R.
    Weryk.  1.8-m Ritchey-Chretien + CCD.
G00 AZM Martinsberg, Oed.  Observers M. Jaeger, E. Prosperi.  Measurer M.
    Jaeger.  0.40-m f/3.2 reflector + CMO.
G02 KYSUCE Observatory, Kysucke Nove Mesto.  Observer M. Urbanik.  0.40-m
    f/6.8 Corrected Dall-Kirkham + CCD.
G15 Magroforte Observatory, Alessandria.  Observer A. De Pieri.  0.23-m f/6.7
    SC + CMO.
H01 Magdalena Ridge Observatory, Socorro.  Observers W. H. Ryan, E. V. Ryan.
    Measurer W. H. Ryan.  2.4-m f/8.9 Ritchey-Chretien + CCD.
I52 Steward Observatory, Mt. Lemmon Station.  Observer R. A. Kowalski.
    Measurers T. Beuden, V. F. Carvajal, D. Fay, J. B. Fazekas, D. C. Fuls, A.
    R. Gibbs, A. D. Grauer, H. Groeller, J. K. Hogan, R. A. Kowalski, S. M.
    Larson, G. J. Leonard, D. Rankin, R. L. Seaman, F. C. Shelly, K. W.
    Wierzchos.  1.0-m prime focus + CCD.
I93 St Pardon de Conques.  Observer F. Losse.  0.40-m f/3.7 reflector + CMO.
P13 Baihuashan Observatory, Beijing.  Observers Z. Wang, B. Liu.  Measurer Z.
    Wang.  0.28-m f/2.2 reflector + CMO.

Orbital elements:
2024 KQ                                                  Earth MOID = 0.0242 AU
Epoch 2024 Mar. 31.0 TT = JDT 2460400.5                 Veres                   
M 341.73251              (2000.0)            P               Q                  
n   0.25946674     Peri.   37.52025     -0.14774940     +0.98849278             
a   2.4345288      Node   224.00996     -0.91834776     -0.14929250             
e   0.5814841      Incl.    2.67589     -0.36716142     -0.02436743             
P   3.80           H   25.86          G   0.15           U   7                  
Residuals in seconds of arc
240508 F51  0.1+  0.0     240527 H01  0.1+  0.1+    240527 G00  0.4+  0.1+
240508 F51  0.1-  0.1+    240527 H01  0.1-  0.1+    240527 G02  1.2-  0.1+
240508 F51  0.0   0.1-    240527 F51  0.6+  0.1+    240527 G02  0.1+  0.5+
240527 F52  0.2+  0.1+    240527 P13  0.5-  0.2+    240527 G02  0.8-  0.0
240527 F52  0.1+  0.1+    240527 P13  0.7-  0.2-    240528 734  0.1-  0.4-
240527 F52  0.4-  0.2-    240527 P13  0.7-  0.0     240528 734  0.5+  0.1+
240527 H01  0.0   0.1-    240527 P13  0.0   0.2-    240528 734  0.1+  0.1+
240527 I52  0.1-  0.1-    240527 P13  0.9-  0.3+    240528 G15  0.2+  0.1+
240527 I52  0.0   0.1-    240527 958  0.3-  0.6+    240528 G15  0.7-  0.1-
240527 I52  0.4-  0.1-    240527 958  0.3-  0.4+    240528 I93  0.4-  0.2-
240527 I52  0.1+  0.1+    240527 958  0.5+  0.4-    240528 I93  0.3-  0.1+
240527 H01  0.1-  0.1-    240527 G00  0.3+  0.4+    240528 I93  0.0   0.3+

Ephemeris:
2024 KQ                  a,e,i = 2.43, 0.58, 3                   q = 1.0189
Date    TT    R. A. (2000) Decl.     Delta      r    Elong.  Phase     V
2024 04 29    12 45 02.4 -08 03 02   0.1537  1.1476   154.5    22.2    23.2
...
2024 05 14    13 05 41.2 -02 20 21   0.07886 1.0742   142.5    35.0    21.9
...
2024 05 22    13 58 31.9 +06 39 54   0.04371 1.0463   140.5    38.0    20.7
...
2024 05 28    16 25 06.0 +24 42 20   0.02592 1.0315   133.8    45.1    19.7
2024 05 29    17 10 08.5 +28 00 17   0.02505 1.0295   129.2    49.8    19.8
2024 05 30    17 59 09.9 +30 22 37   0.02509 1.0277   123.5    55.4    19.9
...
2024 06 05    21 27 30.9 +26 56 33   0.03984 1.0204    97.2    80.6    21.7
...
2024 06 13    22 44 05.2 +19 54 06   0.07274 1.0198    91.3    84.6    23.2
...
2024 06 28    23 20 16.9 +15 06 10   0.1368  1.0467    99.0    73.6    24.2

M. P. C. Staff               (C) Copyright 2024 MPC           M.P.E.C. 2024-K114





More information about the Iaude mailing list